Location: *
(51.5000°N, 0.1100°W)
Time: 01:42:31
(UTC+00:00)

MSX - Pass Details

Date: 11 August 2024
Orbit: 895 x 904 km, 99.0° (Epoch: 09 September)

Event Time Altitude Azimuth Distance (km) Brightness Sun altitude
Rises 02:04:03 0° 15° (NNE) 3,545 8.4 -18.5°
Reaches altitude 10° 02:06:29 10° 16° (NNE) 2,599 7.4 -18.3°
Maximum altitude 02:12:18 87° 106° (ESE) 914 3.8 -17.9°
Enters shadow 02:15:36 27° 195° (SSW) 1,658 4.7 -17.6°
